Flag for Australia Weather past 2 weeks in Tamworth, New South Wales, Australia

Now
86 °F

Sunny.


Feels Like: 83 °F
Forecast: 65 / 97 °F
Wind: 18 mph from North

Location: Tamworth Airport

Current Time: Oct 26, 2014 at 10:08:38 AM

Latest Report: Oct 26, 2014 at 9:30 AM


Visibility: N/A

Pressure: 29.95 "Hg

Humidity: 25%

Dew point: 46 °F

Location of TamworthLocation

Historic Weather in Tamworth — Graph

°F

Tamworth temperature yesterday

Maximum temperature yesterday: 95 °F (at 2:00 PM)
Minimum temperature yesterday: 64 °F (at 6:30 AM)
Average temperature yesterday: 80 °F

Past Weeks' High & Low Weather Summary

 TemperatureHumidityPressure
High95 °F (Oct 25, 2:00 PM)94% (Oct 14, 1:00 AM)30.39 "Hg (Oct 14, 1:00 AM)
Low37 °F (Oct 16, 6:30 AM)11% (Oct 25, 4:00 PM)29.71 "Hg (Oct 13, 4:00 PM)
Average66 °F47%30.10 "Hg
* Reported Oct 11 9:00 AM — Oct 26 9:00 AM, Tamworth, Weather by CustomWeather, © 2014

Note: Actual official high and low records may vary slightly from our data, if they occured in-between our weather recording intervals... More about our weather records

Advertising

Tamworth weather history for previous 24 hours

 ConditionsComfort  
Time TempWeatherWind HumidityBarometerVisibility
9:00 AM
Oct 26
81 °FSunny.3 mph28%29.95 "HgN/A
8:00 AM75 °FSunny.6 mph34%29.98 "HgN/A
7:30 AM72 °FSunny.7 mph38%29.95 "HgN/A
7:00 AM63 °FSunny.3 mph56%29.95 "HgN/A
6:30 AM63 °FSunny.6 mph52%29.95 "HgN/A
6:00 AM61 °FClear.7 mph55%29.95 "HgN/A
5:00 AM63 °FClear.6 mph52%29.95 "HgN/A
4:30 AM64 °FClear.6 mph49%29.95 "HgN/A
4:00 AM68 °FClear.2 mph43%29.95 "HgN/A
3:30 AM68 °FClear.8 mph46%29.98 "HgN/A
3:00 AM68 °FClear.6 mph43%29.98 "HgN/A
2:00 AM73 °FClear.9 mph33%30.01 "HgN/A
1:00 AM72 °FClear.9 mph38%30.01 "HgN/A
12:30 AM70 °FClear.12 mph40%30.01 "HgN/A
12:00 AM75 °FClear.7 mph31%30.01 "HgN/A
11:00 PM
Oct 25
77 °FClear.15 mph30%30.01 "HgN/A
10:00 PM79 °FClear.13 mph28%30.01 "HgN/A
9:30 PM79 °FClear.14 mph28%30.01 "HgN/A
9:00 PM81 °FPassing clouds.18 mph24%30.01 "HgN/A
8:00 PM82 °FClear.12 mph23%29.98 "HgN/A
7:30 PM82 °FClear.15 mph23%29.95 "HgN/A
7:00 PM84 °FSunny.13 mph19%29.95 "HgN/A
6:30 PM90 °FSunny.No wind14%29.95 "HgN/A
6:00 PM90 °FSunny.1 mph14%29.95 "HgN/A
5:30 PM93 °FSunny.7 mph11%29.95 "HgN/A
5:00 PM93 °FSunny.7 mph12%29.95 "HgN/A
4:00 PM95 °FSunny.7 mph11%29.95 "HgN/A
3:30 PM93 °FSunny.9 mph12%29.95 "HgN/A
3:00 PM95 °FSunny.9 mph12%29.98 "HgN/A
2:30 PM93 °FScattered clouds.9 mph13%29.98 "HgN/A
2:00 PM95 °FSunny.10 mph12%30.01 "HgN/A
1:00 PM91 °FSunny.8 mph15%30.04 "HgN/A
12:30 PM90 °FSunny.9 mph16%30.04 "HgN/A
12:00 PM90 °FSunny.5 mph18%30.04 "HgN/A
11:30 AM88 °FSunny.7 mph19%30.07 "HgN/A
11:00 AM84 °FSunny.9 mph25%30.07 "HgN/A
10:00 AM82 °FSunny.10 mph30%30.09 "HgN/A
Weather by CustomWeather, © 2014

See weather overviewHow to use our weather pages